CAPE
28 16 8 0 6 0 0 2 0 0 0 15 1 2 5 3 0 0 0 0 0 0 0 0 0 0 0 0 0 2 19 4 0 0 0 0 0 1 7 117 105 75 17 0 19 0 0 0 300 1121 2351 2475 2243 2066
41 17 8 0 1 0 4 9 0 0 0 7 10 5 3 4 0 0 0 0 0 0 0 0 0 0 0 0 0 0 3 2 25 0 0 0 0 0 388 39 91 62 287 153 112 50 1821 1807 2315 2413 2349 2377 2325 2316
47 32 3 0 0 5 0 0 0 1 1 0 2 4 2 2 1 0 0 0 0 0 0 0 0 0 0 0 0 0 2 6 71 27 10 39 2 5 92 61 127 92 252 328 332 612 1315 1646 1638 1606 1966 2098 1997 1910
48 36 6 3 5 11 0 0 0 5 2 1 0 2 3 2 2 0 0 0 0 0 0 2 0 0 0 0 0 0 0 0 0 0 0 0 55 101 99 109 88 239 360 340 316 990 950 757 1153 1201 1515 1903 2145 2195
50 44 17 7 8 14 9 0 2 1 1 0 0 0 1 1 1 0 0 0 0 0 1 4 0 0 0 0 0 0 0 0 0 0 0 0 0 0 0 2 9 336 297 645 899 686 1079 1030 1109 998 1164 1198 1484 1700
42 23 15 13 10 16 11 1 1 0 1 0 0 0 0 0 0 0 14 5 0 0 0 20 22 0 0 0 0 0 0 0 0 0 1 3 1 22 11 8 38 92 192 256 191 98 90 835 561 695 682 1000 1341 1332
17 15 14 26 12 15 8 2 0 0 0 0 0 0 0 0 1 1 1 0 0 0 0 5 34 0 0 0 0 0 0 0 0 0 0 0 22 14 1 15 145 97 93 38 12 17 196 384 295 276 342 601 815 895
19 20 17 29 20 17 14 1 0 0 0 0 0 0 0 0 0 3 0 0 0 0 0 32 109 44 0 2 13 1 17 1 0 0 0 4 2 19 7 10 0 20 31 37 3 0 25 34 166 122 131 260 916 925
15 26 21 23 28 22 13 4 0 0 0 0 0 0 0 0 12 10 0 0 0 0 9 0 119 146 14 39 103 70 30 35 9 8 0 3 26 26 26 79 0 2 32 25 2 0 2 5 34 121 105 191 375 735
20 29 33 24 21 18 17 4 0 0 0 0 0 6 40 17 0 0 1 16 5 0 0 0 61 231 178 127 182 146 176 61 47 56 41 45 23 61 39 37 49 77 49 29 22 11 25 64 153 199 68 92 72 124
16 32 36 17 17 16 16 1 0 0 0 1 25 61 42 0 4 24 9 8 14 9 0 0 45 154 148 103 344 250 306 259 154 93 67 113 67 160 100 139 63 9 11 0 7 12 21 20 40 88 126 79 34 248
19 24 44 25 28 23 8 0 0 0 14 5 0 1 25 27 26 27 13 22 25 15 60 25 105 72 163 217 404 376 254 165 198 240 216 91 328 379 205 123 76 67 39 41 49 51 49 52 45 51 67 59 72 40
52 43 50 47 37 18 1 0 0 0 0 19 32 55 20 38 4 4 3 44 32 38 125 184 251 186 219 161 289 317 197 265 134 154 79 451 404 242 173 110 42 12 0 3 31 40 86 67 67 101 89 113 160 292
49 58 56 49 42 15 0 0 0 0 0 61 46 4 26 12 17 51 47 105 155 222 215 89 150 111 340 320 333 206 174 154 197 63 111 429 213 67 70 74 29 11 6 1 5 30 83 69 120 148 154 146 166 269
58 66 60 44 25 6 0 0 0 0 7 60 26 0 0 48 73 34 27 35 36 21 50 98 56 41 111 152 163 187 142 142 125 214 239 154 76 25 30 40 28 27 13 16 6 0 28 121 270 323 456 390 416 401
78 76 30 31 13 0 0 0 0 0 44 21 22 22 60 46 28 33 31 105 61 29 27 25 46 71 71 34 35 66 78 112 192 220 4 10 31 47 44 18 14 23 26 18 15 14 37 200 427 624 623 536 746 264
26 7 22 6 0 0 0 0 2 22 43 9 18 24 57 47 56 20 66 110 166 40 61 32 50 46 67 40 38 76 163 52 11 14 9 36 14 3 4 18 26 19 21 22 24 8 132 293 552 861 631 321 715 604
64 3 0 0 0 0 0 0 40 36 17 20 43 41 34 40 238 223 61 27 15 28 14 22 28 62 57 46 42 87 16 5 15 47 24 4 0 1 18 20 25 13 10 27 23 87 387 723 658 268 205 109 28 35
17 2 0 0 0 24 11 31 39 42 21 35 31 27 46 123 132 109 21 20 19 16 15 17 13 24 23 46 58 37 17 18 17 12 17 10 12 6 11 9 18 38 28 29 89 326 354 367 391 321 190 74 42 19
0 0 0 0 0 49 46 43 36 75 44 79 63 45 11 84 42 27 19 21 17 19 5 19 27 68 98 34 12 17 6 14 16 5 1 15 20 16 15 11 10 3 5 48 15 13 38 25 6 6 14 10 10 8
0 0 0 0 24 51 43 23 17 41 39 46 68 49 35 36 37 35 15 6 5 10 10 28 44 42 68 56 7 1 7 6 30 25 8 16 22 7 3 2 5 1 3 6 3 2 2 19 46 44 11 11 6 2
12 0 48 12 50 22 37 38 58 53 36 41 38 42 43 46 45 24 3 7 21 36 38 20 16 2 1 15 4 4 5 25 17 11 6 9 11 5 4 2 0 8 17 16 8 4 3 3 3 9 11 11 14 5
0 13 58 27 14 6 3 24 31 30 46 35 23 19 17 21 9 1 11 11 7 0 0 1 1 2 2 0 4 23 21 12 8 19 47 14 6 12 2 72 32 4 7 4 1 1 0 0 0 0 0 0 0 0
0 25 19 20 2 1 32 24 28 43 8 3 22 26 10 18 6 6 4 3 0 0 2 1 2 6 23 25 37 28 18 5 0 0 13 17 10 1 35 70 52 38 2 0 0 0 0 0 0 0 4 32 44 29
20 1 1 0 24 26 19 10 4 4 4 17 13 17 14 6 7 3 0 0 1 2 31 38 35 32 31 35 20 17 21 13 4 43 78 9 2 16 51 28 3 12 3 3 29 47 52 47 72 38 7 5 8 9
7 4 31 27 33 26 18 18 15 5 8 15 11 12 13 12 5 2 1 1 2 2 42 34 28 35 32 13 7 17 7 12 38 43 21 32 44 67 58 36 49 64 56 66 71 22 23 7 0 0 0 0 0 13
28 21 29 25 15 9 5 3 4 5 10 10 12 11 12 6 2 1 2 3 3 37 42 25 15 10 21 65 82 133 75 45 54 9 38 48 25 28 7 8 16 61 70 48 32 4 0 0 1 4 14 21 19 19
2 3 8 5 3 3 3 8 8 18 17 22 9 17 8 5 3 0 2 1 14 18 50 28 12 66 43 4 12 33 26 21 23 4 0 0 0 0 0 0 0 0 0 0 2 6 9 14 16 18 16 15 12 5
3 1 4 3 2 4 11 32 12 13 12 18 13 8 2 0 0 1 1 1 7 14 31 38 58 50 42 49 50 34 34 16 0 3 4 4 3 0 0 0 0 0 0 0 0 0 0 0 0 11 10 9 10 11
3 2 3 27 34 37 30 20 13 12 10 2 0 0 1 6 9 1 4 9 35 40 25 30 40 53 34 23 14 4 10 13 13 10 23 18 18 15 15 15 15 12 8 2 0 0 0 0 0 4 5 13 16 9
33 5 29 36 36 37 37 28 1 6 0 0 0 0 0 1 16 31 46 67 56 51 43 25 9 0 0 1 6 8 5 2 2 4 21 26 25 21 10 1 5 11 13 15 18 25 9 9 23 11 11 5 0 0
35 32 36 16 19 15 7 7 7 8 8 5 1 0 7 9 5 6 8 9 6 2 0 2 11 10 2 1 0 0 1 8 14 1 1 14 26 26 26 31 24 12 12 13 11 17 11 0 8 6 4 0 1 0
42 32 27 33 35 11 5 9 6 5 1 2 2 1 7 2 0 0 0 7 4 0 0 2 2 2 1 3 0 0 0 0 0 0 0 0 0 0 0 0 0 0 0 2 3 3 0 0 0 0 0 0 0 0
CIN
0 0 -2 0 0 0 0 0 0 0 0 0 0 0 0 0 0 0 0 0 0 0 0 0 0 0 0 0 0 -15 -1 -2 0 0 0 0 0 0 0 -2 -2 -5 -10 0 -12 0 0 0 -10 -7 -7 0 -8 -27
0 -1 -3 0 0 0 -1 0 0 0 0 0 0 0 0 0 0 0 0 0 0 0 0 0 0 0 0 0 0 0 -3 -7 -1 0 0 0 0 0 -1 0 -4 0 -1 -1 0 -4 -11 -12 -7 -2 -21 0 -4 -12
0 0 -5 0 0 -3 0 0 0 0 0 0 0 0 0 0 0 0 0 0 0 0 0 0 0 0 0 0 0 0 -5 -39 -2 -21 -15 -25 -2 -3 -1 0 -2 -1 -4 -2 -4 -2 -4 -2 -2 -41 -27 -31 -17 0
0 0 -3 -5 -1 -1 0 0 0 0 0 0 0 0 0 0 0 0 0 0 0 0 0 -1 0 0 0 0 0 0 0 0 0 0 0 0 -5 -6 -1 -4 -20 -39 -28 -9 -5 -6 -64 -67 -5 -46 -15 -11 0 -14
0 0 0 -3 -1 -1 -2 0 0 0 0 0 0 0 0 0 0 0 0 0 0 0 -1 0 0 0 0 0 0 0 0 0 0 0 0 0 0 0 0 -7 -16 -3 -15 -21 -23 -20 -2 -2 0 -23 -1 -1 0 -7
0 0 -1 -1 -1 -1 0 0 0 0 0 0 0 0 0 0 0 0 0 0 0 0 0 -1 -4 0 0 0 0 0 0 0 0 0 -1 -1 -1 -7 -1 -1 -5 -1 -1 -3 -38 -49 -151 -1 0 0 -3 0 -4 -4
0 0 0 0 -1 -3 0 0 0 0 0 0 0 0 0 0 0 0 0 0 0 0 0 -4 0 0 0 0 0 0 0 0 0 0 0 0 -2 -3 -2 -3 -19 -15 -22 -9 -1 -30 -6 -2 -7 -12 -4 -1 -14 -19
0 0 0 0 0 0 0 0 0 0 0 0 0 0 0 0 0 0 0 0 0 0 0 -5 0 -1 0 0 0 0 0 -1 0 0 -1 0 -1 -1 -1 -2 0 -2 -3 -11 -9 0 -2 -1 -5 -151 -132 -3 -18 0
-4 0 0 0 0 0 0 0 0 0 0 0 0 0 0 0 0 0 0 0 0 -1 -1 0 -6 -1 -21 -1 -5 -1 0 -1 0 0 0 0 -1 0 -1 0 0 -1 -3 -3 -4 0 -8 -1 -3 -3 -3 -4 -3 -1
0 0 0 0 0 0 0 0 0 0 0 0 0 -4 0 0 0 0 0 0 0 0 0 0 -7 -8 -16 -1 0 -1 -1 -1 -1 0 -1 0 0 -1 0 -2 -5 -4 -10 -4 0 -1 -1 -1 -2 -5 0 0 -13 -70
0 0 0 0 0 0 0 0 0 0 0 0 0 -1 0 0 -3 0 -2 -1 -1 0 0 0 -10 -1 -1 -1 -10 -14 -4 -1 -2 -1 -1 -4 0 -3 -1 -11 -10 -9 -17 0 0 -6 -3 -1 -15 -10 0 -6 -21 -33
0 0 0 0 0 0 0 0 0 0 -7 -7 -5 -20 -6 -1 -1 0 -1 -1 0 -1 -9 -9 -4 -3 -1 -1 -7 -20 0 -12 0 -1 0 0 -6 -3 -5 -11 -18 -29 -23 -8 -4 -1 0 0 0 -2 -28 -4 -11 -8
0 0 0 0 0 0 0 0 0 0 0 -1 -1 -2 -1 0 0 0 0 0 0 -16 -1 0 -1 0 0 0 -3 -2 -7 -1 0 0 0 -4 -3 -3 -7 -13 -14 -29 -2 -26 -26 -27 -24 0 0 -1 -4 -9 -1 -11
0 0 0 0 0 0 0 0 0 0 0 0 0 -2 -1 0 -1 -1 0 0 -1 -2 -1 -1 0 -2 -7 -1 0 -4 -1 -1 0 0 -2 -1 -2 -13 -14 -3 -3 -2 0 0 -7 -14 -19 -26 -1 -2 -2 -3 -12 -8
0 0 0 0 0 0 0 0 0 0 -1 -1 0 0 0 -1 -1 0 -4 -3 0 -4 -7 -1 0 -1 0 -2 0 -3 0 0 -1 -2 -1 -4 -7 -19 -11 -5 -4 -2 0 0 0 0 -19 -35 -6 -1 -11 -1 -2 -5
0 0 0 -1 0 0 0 0 0 0 0 -2 0 0 0 0 -1 -1 0 0 0 -2 -2 -1 0 0 0 -6 0 -1 0 -1 0 0 -10 -2 -9 -3 0 0 0 0 0 0 0 0 -37 -11 -4 -1 -6 -9 -12 -13
-8 0 -9 -5 0 0 0 0 -1 0 0 0 -4 0 0 0 -1 -1 0 -1 -4 0 0 0 0 0 -1 -5 -3 0 0 0 0 0 -6 -1 0 0 -1 0 0 -1 -9 -4 -4 -3 -19 -14 -1 0 -5 -12 -19 -65
-2 -14 0 0 0 0 0 -1 -1 0 0 0 0 0 0 0 -3 -4 -2 -8 -12 -1 -1 0 -1 0 -3 -6 -1 0 -6 -37 -11 0 0 -1 0 0 -1 -4 -4 -10 0 -2 -1 -18 -2 0 -8 -81 -96 -77 -155 -127
-3 0 0 0 0 -2 -1 -1 0 0 0 0 0 -2 -1 -5 -1 0 -1 -3 0 -1 -3 -2 0 0 0 -4 0 0 -4 -1 0 0 0 -1 -1 0 0 0 -3 -3 -2 -3 -10 -1 -4 -16 -22 -45 -78 -108 -133 -174
0 0 0 0 0 -1 -1 -1 -1 -2 0 -1 0 0 -8 -1 0 0 0 0 0 0 -1 0 0 -12 -3 -7 -8 -1 -4 0 0 0 -2 -1 0 0 -1 0 -1 0 -23 -2 -22 -27 -18 -62 -42 -33 -87 -158 0 0
0 0 0 0 -4 -4 -1 0 -2 0 0 0 0 0 0 0 0 -1 -3 0 0 0 -3 -3 -16 -7 0 0 0 0 0 -3 0 0 0 0 0 0 0 0 0 0 0 -1 0 -37 -1 -23 -31 -47 -35 0 0 0
-8 0 -1 -44 -7 0 0 -1 0 0 0 0 0 0 0 0 0 0 0 0 0 0 -1 -2 -3 -12 -5 -5 0 0 -5 0 0 0 -1 0 0 0 0 0 0 0 -2 0 0 0 0 0 -1 0 0 0 0 0
0 -49 -1 0 0 -5 -3 0 -2 -3 0 0 0 0 0 0 -1 0 -1 0 0 0 0 0 0 0 0 0 0 -1 0 -1 -1 0 0 0 -2 -2 -17 0 -1 0 0 0 0 0 0 0 0 0 0 0 0 0
0 0 0 0 0 -10 0 -1 -1 0 0 0 0 0 0 -1 0 0 0 0 0 0 0 0 0 0 0 0 0 0 -1 -1 0 -3 -3 -4 -4 -21 -3 -1 -1 -5 -3 0 0 0 0 0 0 -57 -49 -8 -2 -1
-5 -4 -1 0 -1 0 0 0 -1 0 0 0 0 0 0 0 0 0 0 0 0 0 0 -6 -9 -1 0 0 0 -2 -1 -6 -29 -12 -14 -20 -29 -8 -9 -37 -49 -26 -35 -25 -12 -3 0 -9 -12 -2 -1 0 0 0
-1 0 -4 0 -1 -1 0 -1 0 0 0 0 0 0 0 0 0 0 0 0 0 -1 -1 0 0 0 0 -3 0 -3 -37 -76 -34 -15 -46 -64 -43 -3 -24 -27 -1 -7 -14 -11 -1 0 -1 0 0 0 0 0 -2 -1
0 -1 0 0 -1 0 0 0 0 0 0 0 0 0 0 0 0 0 -5 0 -4 0 -1 -10 -19 -29 -26 -11 -13 -4 -28 -58 -24 -4 -3 -14 -1 -2 -2 0 0 -1 -12 -5 -1 -1 0 0 0 -1 0 0 0 0
0 0 0 0 0 0 0 0 0 0 0 0 0 0 0 0 0 0 0 0 -3 -2 -2 -1 -54 -33 -38 -71 -71 -7 -15 -5 -1 0 0 0 0 0 0 0 0 0 0 0 -3 0 0 0 -1 0 0 0 0 -1
0 0 0 0 0 0 -1 0 -1 0 0 0 0 0 0 0 0 -2 -4 -40 -64 -23 -4 0 -5 -6 -12 -7 -2 -1 -2 0 0 0 -1 0 0 0 0 0 0 0 0 0 0 0 0 0 0 -1 0 -1 0 0
-2 0 -1 0 0 0 0 0 0 -1 -2 -1 0 0 -4 -12 -4 -17 -34 -42 -16 -13 -29 -16 -2 0 0 -1 0 -1 0 0 -1 -1 0 -1 0 0 0 0 0 0 -1 -1 0 0 0 0 0 0 0 0 -1 -1
0 -3 -2 0 0 0 0 0 -2 0 0 0 -7 0 0 -2 -17 -14 -3 -1 0 -1 -5 0 0 0 0 0 -1 -1 0 -1 -1 -2 -2 0 0 0 -1 -1 -1 -1 0 0 -1 -1 -2 -1 -1 0 0 -1 0 0
0 0 0 0 0 -1 0 0 0 0 0 0 0 0 0 0 0 0 0 0 0 0 0 0 -1 0 0 -2 0 -1 0 0 -3 -1 -1 -2 -1 -1 -1 -1 0 0 0 0 0 0 0 0 0 -1 0 0 0 0
-12 -2 -1 0 0 0 -1 0 -1 -1 -2 0 -1 -1 -1 -1 0 0 0 0 -1 0 0 0 -1 0 -1 -1 0 0 0 0 0 0 0 0 0 0 0 0 0 0 0 0 0 0 0 0 0 0 0 0 0 0
Wind_Speed
13 11 10 9 9 7 7 8 9 11 12 14 13 16 18 19 20 14 7 3 5 7 10 8 10 9 11 7 9 12 4 4 5 7 9 8 9 10 15 14 10 13 11 12 11 14 20 13 11 4 2 6 8 9
13 12 11 9 9 8 9 9 7 9 11 13 13 14 16 17 19 18 6 7 6 5 8 11 10 11 10 10 7 9 9 4 5 6 8 8 11 10 9 8 13 3 10 8 9 7 7 11 13 11 8 4 7 7
14 13 11 9 9 8 7 4 6 8 10 12 13 13 14 15 16 13 8 8 8 8 10 11 9 8 7 9 7 5 5 10 6 9 7 6 7 9 5 9 8 6 3 3 3 6 10 10 12 11 9 8 6 3
14 13 12 10 10 9 6 6 7 8 9 11 12 13 13 14 15 13 8 8 7 7 7 9 4 4 3 7 9 9 6 8 9 8 7 8 9 11 6 4 9 5 8 6 6 7 10 9 11 8 8 8 8 14
13 13 11 10 10 9 8 7 8 8 9 10 12 13 14 15 16 12 9 8 3 6 7 7 3 5 7 6 8 8 6 6 6 7 8 9 11 10 9 7 7 9 5 4 5 11 8 7 8 8 7 7 7 8
12 12 12 11 10 10 9 8 7 7 9 10 12 13 14 15 16 9 5 4 11 6 6 5 7 6 5 5 8 9 7 5 6 8 7 8 8 3 6 8 7 10 8 9 3 3 7 11 2 2 4 8 13 9
14 13 12 13 11 10 8 7 7 8 9 10 12 13 15 14 9 5 4 6 9 8 5 6 3 6 8 8 7 7 8 6 6 8 9 10 7 4 6 12 7 9 8 8 6 5 6 3 7 9 6 4 10 11
15 15 14 13 12 10 9 8 7 8 9 11 13 14 15 15 13 8 1 10 6 6 5 6 4 7 10 6 8 8 7 7 7 7 8 9 8 5 7 8 11 4 4 5 6 8 6 9 1 7 17 1 7 7
16 16 15 13 12 11 9 8 8 8 9 11 15 17 6 4 4 3 4 4 5 5 7 5 4 4 8 8 3 3 4 7 6 9 9 8 9 7 7 11 10 9 5 2 6 5 10 12 9 6 6 11 6 6
18 17 15 14 13 12 10 9 8 8 10 12 8 3 4 3 8 4 4 4 5 6 6 6 3 2 7 8 3 2 4 4 4 6 5 10 10 11 10 9 6 3 3 3 6 7 10 10 5 4 9 4 1 7
22 19 17 16 14 12 11 9 8 8 11 6 3 2 4 6 5 2 3 4 5 4 6 7 7 1 4 3 4 3 3 3 3 4 2 5 7 11 7 11 7 3 2 5 7 8 11 13 1 10 7 6 9 5
23 20 17 16 15 13 11 9 6 6 5 6 5 7 5 4 2 3 4 5 6 4 3 5 3 4 3 3 2 2 5 4 6 1 4 6 5 7 7 9 8 6 6 9 13 9 10 12 12 11 9 7 8 4
24 20 18 16 15 14 11 9 7 9 14 7 5 4 3 3 1 6 8 7 4 2 1 3 1 4 0 2 3 6 3 7 0 5 4 6 7 4 4 3 4 4 6 9 13 15 19 11 13 10 11 10 11 6
25 21 17 16 15 13 11 8 6 8 6 5 5 2 5 6 7 2 2 3 4 2 3 1 3 2 3 2 3 4 4 1 4 6 3 4 5 5 5 6 7 6 7 10 12 13 15 16 12 12 13 10 9 6
22 19 17 15 15 13 10 7 5 6 5 6 5 3 9 8 2 3 5 2 1 4 3 3 3 4 2 2 4 3 4 4 1 4 4 4 1 3 7 7 7 8 10 7 11 15 12 13 15 13 11 12 11 7
21 16 10 17 15 12 9 7 7 6 5 4 4 5 6 3 2 4 5 5 4 2 3 3 1 2 4 3 3 4 5 4 4 4 3 4 6 9 11 12 13 12 11 11 11 12 13 12 13 15 16 13 17 8
17 6 20 18 14 11 8 5 6 5 5 4 5 5 3 6 1 2 4 4 2 3 1 1 3 1 3 3 3 3 4 1 3 4 3 7 9 10 11 12 12 11 9 10 7 11 13 13 13 15 8 14 8 14
2 17 22 18 13 8 6 6 4 6 7 8 4 2 3 2 6 2 6 3 5 3 2 2 6 3 2 3 2 4 7 7 7 7 8 9 8 7 8 9 9 6 8 9 9 10 10 8 3 3 12 4 9 11
12 14 19 19 10 4 7 6 5 4 7 3 3 1 2 4 3 4 3 2 2 2 3 2 3 4 3 3 8 8 9 9 9 9 8 8 7 7 7 7 8 5 6 6 4 1 4 6 5 4 5 7 7 7
17 13 11 9 6 4 5 3 3 5 3 2 1 5 2 4 3 4 2 5 5 4 2 4 6 4 3 3 2 5 7 7 5 5 5 4 4 5 5 3 3 5 5 8 7 7 6 6 6 8 8 9 8 8
12 6 7 6 6 8 4 4 5 2 2 2 2 2 3 2 1 4 5 6 5 2 4 2 5 7 9 7 7 5 4 3 3 2 4 3 3 3 4 4 5 5 7 6 6 7 7 5 6 7 9 9 10 10
8 14 4 7 5 2 4 1 2 3 2 2 2 3 0 2 4 6 6 2 3 2 3 6 7 8 8 7 5 4 4 4 3 3 4 2 2 4 5 5 6 7 6 7 7 6 6 7 8 9 9 8 8 10
9 5 5 4 2 1 6 3 3 4 3 1 2 2 1 3 3 4 2 1 3 2 2 5 6 5 5 4 3 1 2 2 2 3 4 5 5 5 4 4 6 7 8 7 7 7 7 7 8 9 8 7 8 8
2 4 4 4 6 4 3 1 2 4 4 3 2 1 1 2 2 1 2 2 3 3 2 4 3 2 2 1 2 3 3 2 2 3 4 6 5 3 5 8 9 8 9 7 7 7 7 7 9 6 7 9 10 9
2 4 3 4 3 2 1 3 2 0 2 2 1 1 2 1 0 1 2 3 2 4 1 2 3 3 3 4 4 4 2 2 2 2 2 7 6 5 6 6 5 6 5 6 7 7 7 7 7 9 9 10 11 11
0 3 2 1 2 1 1 2 3 3 3 3 1 2 2 1 1 2 2 2 2 2 3 3 4 5 5 4 5 2 2 2 4 6 4 4 2 8 9 8 8 7 8 8 9 6 7 10 9 10 9 9 5 9
2 1 2 3 2 2 0 1 2 2 2 3 3 3 2 1 1 1 2 2 2 3 3 3 3 3 4 5 4 7 8 6 5 4 5 5 5 5 7 7 8 8 10 8 7 9 8 9 9 9 8 6 6 6
1 1 2 3 2 2 3 2 3 4 4 4 4 0 2 2 1 1 1 2 2 1 1 3 6 5 6 6 5 5 6 7 6 8 8 8 8 7 8 8 8 13 11 11 4 6 6 6 6 6 6 7 7 7
3 3 3 4 4 5 5 2 1 2 1 5 3 3 3 1 2 2 2 2 2 3 4 4 3 5 6 8 6 5 4 7 7 8 10 9 9 8 8 8 7 6 6 8 11 11 11 10 11 8 7 5 4 3
4 5 4 5 3 1 2 3 5 5 6 9 5 4 3 4 5 6 6 7 7 7 7 5 5 6 5 5 7 6 5 5 6 6 6 7 8 7 6 6 6 6 6 6 6 5 3 3 3 5 4 3 3 2
6 8 5 4 5 8 9 10 6 9 11 5 3 6 6 6 7 8 9 9 9 10 11 8 6 5 5 5 4 7 7 7 8 9 6 7 7 7 6 2 3 3 2 3 2 4 7 6 3 1 3 4 5 3
3 4 6 9 10 10 9 8 9 10 10 9 8 7 6 7 7 4 4 5 6 5 3 2 5 8 6 6 7 9 11 8 9 10 16 10 8 8 3 2 5 5 3 2 2 1 4 3 3 3 3 1 1 2
2 2 5 6 6 5 6 5 4 5 7 7 8 8 8 6 6 3 4 6 3 5 5 4 6 7 5 9 10 9 11 9 10 10 12 12 11 11 9 9 6 3 2 3 4 3 1 1 3 2 2 3 3 2
Wind_Direction
242 247 256 273 278 284 295 307 326 333 336 340 349 349 349 350 349 343 320 10 323 312 315 16 339 326 335 321 284 3 172 131 246 224 256 262 263 246 226 257 235 201 207 225 245 257 259 288 326 33 78 28 350 34
236 235 247 267 267 274 290 296 308 323 329 335 341 346 347 348 347 343 280 9 345 269 323 320 298 290 297 320 334 319 322 303 337 264 218 251 254 276 275 253 226 196 229 231 219 266 85 51 66 57 18 18 20 20
228 226 234 252 256 268 295 275 296 309 322 325 331 338 341 341 343 342 308 308 308 255 264 226 234 209 238 248 285 291 3 357 343 348 320 285 266 277 304 238 285 220 171 252 324 135 97 79 68 38 26 13 339 16
223 223 230 242 251 248 254 271 291 300 307 315 319 325 331 331 329 324 299 327 290 304 274 134 108 223 200 250 230 247 290 315 291 281 277 288 305 325 260 94 305 29 354 289 263 105 82 32 71 42 30 22 17 39
221 222 226 235 235 241 251 265 282 295 298 310 314 317 322 324 320 300 266 267 305 311 326 321 261 151 183 220 234 229 235 281 289 269 256 262 273 296 299 306 259 80 36 329 35 8 16 7 32 15 12 41 46 46
215 219 227 227 229 240 246 262 277 284 293 304 309 312 315 319 323 282 199 139 13 337 283 276 115 176 168 185 215 208 211 225 251 269 271 256 252 310 272 276 313 344 128 103 141 59 318 316 284 2 5 43 26 76
220 226 232 220 223 235 248 249 268 281 291 298 303 307 308 312 302 310 353 355 341 302 250 252 187 147 166 176 192 201 202 243 233 238 251 276 283 213 255 265 50 348 26 3 33 352 315 51 4 341 320 81 111 90
221 222 221 218 219 228 237 245 262 278 288 296 301 303 302 301 277 254 356 219 284 262 273 271 186 181 182 188 194 211 199 197 233 237 251 240 249 222 264 264 268 200 199 300 302 335 318 324 35 48 328 131 107 117
216 213 212 215 216 225 232 240 258 276 288 298 302 299 275 221 242 60 130 202 238 290 303 254 135 248 176 240 49 267 246 211 210 214 222 253 251 225 230 225 246 271 345 356 302 314 308 306 304 297 311 10 17 154
211 205 204 210 214 221 226 234 254 275 287 298 276 215 243 159 110 170 179 208 205 207 224 260 257 147 267 173 172 193 233 246 317 240 225 221 230 253 224 220 182 116 49 341 304 311 323 320 340 334 303 288 82 32
203 202 197 204 209 216 213 225 250 288 258 213 219 222 92 142 228 232 247 211 212 236 209 245 285 53 328 213 82 318 271 281 250 235 198 278 222 10 215 94 74 100 315 302 290 294 299 291 175 288 232 276 303 79
191 194 191 197 202 201 202 217 240 248 350 331 304 269 209 227 191 251 241 225 209 233 240 237 313 236 144 46 83 79 210 202 245 161 232 235 109 44 55 61 61 18 8 343 329 286 276 286 291 294 318 236 257 228
184 183 184 187 187 189 194 213 240 293 290 243 214 243 180 171 288 224 193 209 174 199 67 296 355 14 227 55 258 199 226 248 82 200 224 61 96 108 61 340 26 343 341 333 324 324 323 281 283 280 276 299 271 175
166 170 173 177 177 183 186 206 242 267 257 240 195 216 223 211 226 254 248 100 38 142 4 59 172 18 316 228 235 254 273 306 259 245 65 100 96 8 330 321 342 341 318 308 298 295 309 313 280 277 279 264 264 214
157 155 162 167 172 173 182 199 232 239 264 245 224 222 210 245 296 151 86 35 38 102 254 227 198 246 228 251 263 285 239 224 271 46 64 108 96 326 316 314 306 299 284 281 293 284 281 301 303 289 284 280 268 237
144 133 172 154 166 169 177 201 213 237 245 248 266 249 285 200 161 235 171 147 210 162 246 242 238 249 211 247 256 251 277 45 44 48 49 18 7 339 329 318 306 307 300 287 276 273 276 287 281 277 274 271 294 223
167 151 149 151 156 166 187 246 205 237 262 248 248 218 272 271 105 44 125 77 312 271 354 202 243 225 290 232 254 338 34 114 12 5 349 18 349 325 312 303 296 291 274 267 262 253 247 258 282 282 310 26 44 46
139 134 140 147 160 165 187 219 248 235 217 240 272 263 248 0 61 333 71 359 37 322 303 22 318 253 266 266 26 12 29 13 5 9 353 343 324 305 297 300 304 273 263 260 251 261 269 263 262 42 83 103 81 90
129 139 153 170 203 283 181 206 233 252 218 247 222 270 225 28 322 147 62 96 257 264 266 254 263 265 293 329 341 1 10 1 346 334 330 322 299 301 303 299 298 291 262 251 251 116 58 51 70 89 88 84 88 94
104 131 154 169 229 266 231 153 205 249 332 355 291 75 234 211 207 73 77 6 355 333 236 248 249 40 331 104 32 353 347 357 335 317 312 315 308 308 314 327 31 15 43 83 72 64 74 76 64 68 75 73 77 72
160 141 170 214 209 223 252 218 217 184 173 253 142 7 305 332 227 9 34 16 299 227 262 282 10 23 5 27 9 355 342 317 311 280 289 299 331 358 33 41 65 45 60 63 63 57 51 68 84 82 90 91 90 78
102 171 216 195 259 232 277 228 226 332 291 165 163 239 109 14 352 39 329 302 276 262 353 341 333 349 323 339 339 307 303 329 316 289 275 285 63 64 63 60 71 70 68 69 75 75 76 72 78 83 85 84 91 94
169 199 230 194 279 62 256 260 65 299 22 2 20 0 42 26 46 344 293 313 291 290 294 298 295 287 269 288 279 280 50 19 11 25 55 76 71 74 61 103 94 84 79 68 69 78 78 74 78 95 104 116 112 114
178 275 295 205 171 245 125 56 94 19 5 341 342 345 38 36 32 346 283 269 254 272 247 240 236 233 195 205 99 107 93 70 66 32 56 101 99 64 61 83 96 103 100 111 116 123 127 129 137 143 166 168 148 147
212 296 157 298 281 181 213 119 107 264 256 212 259 206 123 96 319 276 249 268 288 293 254 114 91 69 88 94 96 102 103 166 155 91 47 132 121 95 90 87 89 91 117 126 137 155 175 173 216 156 133 117 121 126
235 222 136 247 253 101 112 175 195 215 236 198 167 141 187 228 242 281 281 293 284 299 97 111 124 108 92 109 132 143 251 259 157 131 206 231 206 135 142 137 145 170 177 179 163 151 94 84 87 100 99 90 94 117
241 161 45 33 40 61 252 238 263 267 253 190 172 194 188 93 321 297 292 285 311 27 32 88 110 147 177 193 190 146 168 213 187 143 164 182 121 83 81 83 97 153 193 172 125 95 113 124 133 144 142 116 96 95
263 268 217 163 199 206 268 229 224 215 205 165 169 129 96 159 154 276 329 312 351 349 360 197 224 202 185 199 208 168 187 176 159 96 89 78 69 73 82 80 66 72 69 34 76 128 131 124 106 95 93 85 69 51
210 190 217 212 215 203 231 248 268 238 191 142 139 121 111 201 188 168 201 222 248 251 200 176 189 218 179 183 192 155 193 105 102 128 125 123 127 125 133 137 143 111 114 91 57 56 47 41 29 38 66 85 100 105
183 180 229 235 241 94 101 87 65 64 77 82 94 116 122 158 194 197 174 190 205 208 203 204 223 204 188 111 94 100 105 106 124 122 122 118 121 115 121 129 137 130 122 127 122 115 59 203 133 184 217 205 157 136
165 197 193 118 105 118 119 109 136 121 100 103 132 125 146 162 175 204 221 216 196 197 208 202 171 127 117 132 156 107 87 68 58 37 17 97 81 65 72 94 146 125 90 21 318 162 154 227 200 73 136 30 57 320
123 115 124 118 109 115 111 111 115 121 132 139 148 184 172 126 116 134 180 197 175 134 19 222 114 89 89 79 72 71 70 80 55 42 21 38 50 29 357 120 68 43 11 36 320 89 132 300 334 29 50 163 345 342
98 97 76 85 100 117 139 128 125 154 162 166 164 159 146 117 108 137 211 236 163 160 180 118 104 93 88 106 95 91 79 82 83 71 67 58 44 18 8 27 25 345 338 344 4 55 125 26 325 30 346 339 335 321